EW2295 Weather Reports


time (UTC)temp
C
wind
direction
speed
KPH
gust
KPH
rain 1hr
cm
rain 24hr
cm
rain mn
cm
humidity
%
barometer
mb
20260831193107 16 0 0.0 0.0 0.00 0.18 0.18 87 1016.3
20260831192546 16 0 0.0 0.0 0.00 0.18 0.18 87 1016.2
20260831192045 16 0 0.0 0.0 0.00 0.18 0.18 88 1016.1
20260831191605 16 0 0.0 0.0 0.00 0.18 0.18 88 1016.1
20260831191045 16 0 0.0 0.0 0.00 0.18 0.18 88 1016.1
20260831190546 16 0 0.0 0.0 0.00 0.18 0.18 88 1016.0
20260831190108 16 0 0.0 0.0 0.00 0.18 0.18 88 1015.9
20260831185545 16 0 0.0 0.0 0.00 0.18 0.18 88 1015.8
20260831185044 16 0 0.0 0.0 0.00 0.18 0.18 87 1015.7
20260831184605 16 0 0.0 0.0 0.00 0.18 0.18 87 1015.6
20260831184047 16 0 0.0 6.4 0.00 0.18 0.18 86 1015.5
20260831183546 16 0 0.0 11.3 0.00 0.18 0.18 85 1015.4
20260831183105 16 0 0.0 11.3 0.00 0.18 0.18 85 1015.2
20260831182545 16 0 0.0 6.4 0.00 0.18 0.18 85 1015.2
20260831182046 16 0 0.0 0.0 0.00 0.18 0.18 84 1015.1
20260831181600 16 0 0.0 6.4 0.00 0.18 0.18 84 1015.0
20260831181046 16 0 0.0 9.7 0.00 0.18 0.18 84 1015.0
20260831180546 16 225 0.0 9.7 0.00 0.18 0.18 84 1014.7
20260831180111 16 0 0.0 12.9 0.00 0.18 0.18 84 1014.7
20260831175548 16 0 0.0 12.9 0.00 0.18 0.18 83 1014.7
20260831175047 17 0 0.0 20.9 0.00 0.18 0.18 83 1014.6
20260831174605 17 227 1.6 20.9 0.00 0.18 0.18 82 1014.5
20260831174050 17 0 1.6 16.1 0.00 0.18 0.18 82 1014.5
20260831173546 17 0 3.2 22.5 0.00 0.18 0.18 81 1014.4
20260831173130 17 0 1.6 22.5 0.00 0.18 0.18 80 1014.3
20260831172547 17 248 4.8 19.3 0.00 0.18 0.18 80 1014.3
20260831172047 17 239 0.0 22.5 0.00 0.18 0.18 81 1014.2
20260831171558 17 0 1.6 22.5 0.00 0.18 0.18 79 1014.0
20260831171046 17 251 0.0 17.7 0.00 0.18 0.18 79 1014.0
20260831170545 17 0 3.2 19.3 0.00 0.18 0.18 78 1013.8
20260831170110 17 0 1.6 24.1 0.00 0.18 0.18 79 1013.9
20260831165544 17 257 1.6 24.1 0.00 0.18 0.18 80 1013.9
20260831165044 17 0 3.2 24.1 0.00 0.18 0.18 81 1013.7
20260831164612 17 236 1.6 16.1 0.00 0.18 0.18 84 1013.7
20260831164050 17 0 1.6 14.5 0.00 0.18 0.18 85 1013.5
20260831163546 17 0 0.0 9.7 0.00 0.18 0.18 85 1013.4
20260831163109 17 0 0.0 9.7 0.00 0.18 0.18 85 1013.4
20260831162547 17 0 0.0 9.7 0.00 0.18 0.18 85 1013.4
20260831162046 17 0 0.0 24.1 0.00 0.18 0.18 85 1013.4
20260831161606 17 0 0.0 24.1 0.00 0.18 0.18 84 1013.4
20260831161044 17 215 6.4 25.7 0.00 0.18 0.18 83 1013.4
20260831160545 17 237 1.6 25.7 0.00 0.18 0.18 84 1013.4
20260831160105 17 0 4.8 25.7 0.00 0.18 0.18 82 1013.4
20260831155546 17 258 3.2 12.9 0.00 0.18 0.18 85 1013.4
20260831155052 17 0 1.6 12.9 0.00 0.18 0.18 87 1013.3
20260831154636 17 0 1.6 11.3 0.00 0.18 0.18 87 1013.4
20260831154044 17 0 0.0 19.3 0.00 0.18 0.18 89 1013.2
20260831153546 17 0 0.0 19.3 0.00 0.18 0.18 89 1013.4
20260831153105 17 229 1.6 19.3 0.00 0.18 0.18 89 1013.3
20260831152545 16 220 0.0 9.7 0.00 0.18 0.18 90 1013.1
20260831152046 16 220 0.0 8.0 0.00 0.18 0.18 90 1013.2
20260831151607 16 0 0.0 8.0 0.08 0.18 0.18 91 1013.0
20260831151046 16 0 0.0 16.1 0.13 0.18 0.18 91 1013.1
20260831150546 17 0 0.0 16.1 0.13 0.18 0.18 90 1013.0
20260831150107 17 0 0.0 14.5 0.13 0.18 0.18 91 1013.0
20260831145545 17 0 1.6 11.3 0.13 0.18 0.18 93 1013.1
20260831145046 17 0 0.0 0.0 0.13 0.18 0.18 93 1013.1
20260831144556 16 0 0.0 6.4 0.13 0.18 0.18 93 1012.9
20260831144046 16 0 0.0 6.4 0.13 0.18 0.18 93 1012.6
20260831143551 16 0 0.0 6.4 0.13 0.18 0.18 93 1012.5
20260831143110 16 0 0.0 8.0 0.13 0.18 0.18 92 1012.8
20260831142547 16 227 0.0 8.0 0.13 0.18 0.18 91 1012.7
20260831142047 16 0 0.0 6.4 0.10 0.15 0.15 89 1012.5
20260831141608 17 0 0.0 6.4 0.03 0.08 0.08 88 1012.4
20260831141046 17 0 0.0 6.4 0.00 0.03 0.03 88 1012.3
20260831140546 17 0 0.0 6.4 0.00 0.03 0.03 87 1012.2
20260831135546 17 0 0.0 6.4 0.00 0.03 0.03 87 1012.1
20260831135046 17 0 0.0 6.4 0.00 0.03 0.03 86 1012.2
20260831134606 17 0 0.0 8.0 0.00 0.03 0.03 85 1012.3
20260831134046 17 0 0.0 8.0 0.00 0.03 0.03 83 1012.2
20260831133542 17 0 0.0 25.7 0.00 0.03 0.03 81 1012.3
20260831133107 18 0 8.0 25.7 0.00 0.03 0.03 77 1012.3
20260831132546 18 241 8.0 24.1 0.00 0.03 0.03 76 1012.0
20260831132046 18 0 4.8 22.5 0.00 0.03 0.03 76 1012.0
20260831131603 18 0 4.8 24.1 0.00 0.03 0.03 74 1012.0
20260831131046 19 0 9.7 24.1 0.00 0.03 0.03 74 1012.0
20260831130548 20 237 1.6 29.0 0.00 0.03 0.03 75 1011.9
20260831130110 20 0 0.0 29.0 0.00 0.03 0.03 75 1011.8
20260831125546 20 200 9.7 25.7 0.00 0.03 0.03 76 1011.7
20260831125047 19 0 0.0 22.5 0.00 0.03 0.03 80 1011.8
20260831124610 18 0 4.8 24.1 0.00 0.03 0.03 80 1011.9
20260831124046 18 239 6.4 24.1 0.00 0.03 0.03 81 1012.0
20260831123546 18 245 11.3 24.1 0.00 0.03 0.03 82 1011.8
20260831123106 18 240 6.4 25.7 0.00 0.03 0.03 83 1011.9
20260831122546 18 224 6.4 25.7 0.00 0.03 0.03 83 1012.0
20260831122046 18 232 4.8 20.9 0.00 0.03 0.03 84 1011.8
20260831121603 18 243 4.8 27.4 0.00 0.03 0.03 84 1011.8
20260831121119 18 249 6.4 27.4 0.00 0.03 0.03 85 1011.6
20260831120546 18 203 1.6 22.5 0.00 0.03 0.03 88 1011.7
20260831115545 16 0 9.7 25.7 0.00 0.03 0.03 89 1012.0
20260831115045 16 0 3.2 22.5 0.00 0.03 0.03 91 1012.0
20260831114607 16 0 3.2 33.8 0.00 0.03 0.03 90 1012.1
20260831114042 16 236 6.4 40.2 0.00 0.03 0.03 89 1012.2
20260831113546 16 248 16.1 40.2 0.00 0.03 0.03 87 1012.4
20260831113105 16 218 14.5 38.6 0.00 0.00 0.00 84 1012.5
20260831112545 17 244 12.9 53.1 0.00 0.00 0.00 79 1012.4
20260831112046 18 257 24.1 53.1 0.00 0.00 0.00 75 1012.2
20260831111624 19 192 19.3 43.5 0.00 0.00 0.00 70 1012.1
20260831111046 20 237 4.8 37.0 0.00 0.00 0.00 66 1011.6
20260831110546 20 146 9.7 35.4 0.00 0.00 0.00 64 1011.5
20260831110110 20 234 8.0 35.4 0.00 0.00 0.00 63 1011.3
20260831105546 20 0 11.3 33.8 0.00 0.00 0.00 63 1011.3
20260831105049 21 253 6.4 40.2 0.00 0.00 0.00 62 1011.2
20260831104610 21 218 11.3 40.2 0.00 0.00 0.00 61 1011.2
20260831104046 21 238 16.1 40.2 0.00 0.00 0.00 62 1011.3
20260831103548 21 271 14.5 40.2 0.00 0.00 0.00 62 1011.4
20260831103106 20 223 14.5 40.2 0.00 0.00 0.00 63 1011.3
20260831102545 21 165 14.5 38.6 0.00 0.00 0.00 62 1011.4
20260831102047 21 215 3.2 29.0 0.00 0.00 0.00 63 1011.3
20260831101606 20 0 4.8 29.0 0.00 0.00 0.00 65 1011.3
20260831101046 21 242 4.8 30.6 0.00 0.00 0.00 63 1011.5
20260831100547 20 0 6.4 33.8 0.00 0.00 0.00 64 1011.4
20260831100108 20 0 14.5 33.8 0.00 0.00 0.00 63 1011.5
20260831095545 20 236 19.3 35.4 0.00 0.00 0.00 61 1011.5
20260831095045 21 238 14.5 35.4 0.00 0.00 0.00 61 1011.6
20260831094618 21 257 6.4 32.2 0.00 0.00 0.00 63 1011.6
20260831094047 21 0 3.2 33.8 0.00 0.00 0.00 66 1011.7
20260831093543 20 242 8.0 33.8 0.00 0.00 0.00 67 1011.9
20260831093103 20 246 9.7 35.4 0.00 0.00 0.00 67 1012.1
20260831092547 20 219 8.0 38.6 0.00 0.00 0.00 67 1011.9
20260831092046 20 221 12.9 38.6 0.00 0.00 0.00 66 1011.8
20260831091606 20 246 4.8 29.0 0.00 0.00 0.00 67 1011.8
20260831091046 20 227 8.0 29.0 0.00 0.00 0.00 67 1011.6
20260831090546 20 0 3.2 30.6 0.00 0.00 0.00 68 1011.7
20260831090108 20 220 8.0 32.2 0.00 0.00 0.00 69 1011.7
20260831085546 20 185 11.3 32.2 0.00 0.00 0.00 68 1011.8
20260831085046 20 239 12.9 32.2 0.00 0.00 0.00 68 1011.7
20260831084557 19 275 16.1 32.2 0.00 0.00 0.00 68 1011.7
20260831084045 20 271 3.2 32.2 0.00 0.00 0.00 70 1011.6
20260831083546 20 254 11.3 32.2 0.00 0.00 0.00 71 1011.6
20260831083106 20 222 9.7 32.2 0.00 0.00 0.00 71 1011.6
20260831082546 19 210 16.1 43.5 0.00 0.00 0.00 71 1011.5
20260831082046 19 0 16.1 43.5 0.00 0.00 0.00 72 1011.5
20260831081609 19 0 8.0 33.8 0.00 0.00 0.00 74 1011.6
20260831081043 18 220 11.3 33.8 0.00 0.00 0.00 75 1011.6
20260831080546 18 0 3.2 25.7 0.00 0.00 0.00 78 1011.6
20260831080104 18 0 3.2 24.1 0.00 0.00 0.00 77 1011.6
20260831075545 18 0 3.2 24.1 0.00 0.00 0.00 79 1011.7
20260831075046 18 235 3.2 24.1 0.00 0.00 0.00 80 1011.9
20260831074604 18 229 4.8 24.1 0.00 0.00 0.00 78 1011.8
20260831074048 18 261 1.6 25.7 0.00 0.00 0.00 79 1011.8
20260831073544 18 239 3.2 25.7 0.00 0.00 0.00 80 1011.8
20260831073106 18 0 6.4 25.7 0.00 0.00 0.00 79 1011.9
20260831072545 18 252 1.6 19.3 0.00 0.00 0.00 80 1011.9
20260831072045 18 234 3.2 19.3 0.00 0.00 0.00 80 1012.0
20260831071604 18 0 4.8 20.9 0.00 0.00 0.00 80 1011.9
20260831071042 18 220 0.0 20.9 0.00 0.00 0.00 81 1011.9
20260831070546 18 206 4.8 16.1 0.00 0.00 0.00 81 1011.8
20260831065546 18 227 0.0 9.7 0.00 0.03 0.00 83 1011.8
20260831065046 17 0 0.0 12.9 0.00 0.03 0.00 84 1011.8
20260831064558 17 227 0.0 19.3 0.00 0.03 0.00 85 1011.8
20260831064045 17 209 0.0 19.3 0.00 0.03 0.00 85 1011.8
20260831063543 17 223 0.0 17.7 0.00 0.03 0.00 85 1011.9
20260831063102 17 0 1.6 17.7 0.00 0.03 0.00 85 1011.8
20260831062546 17 0 1.6 17.7 0.00 0.03 0.00 85 1011.9
20260831062043 17 0 1.6 25.7 0.00 0.03 0.00 86 1011.8
20260831061607 17 0 1.6 25.7 0.00 0.03 0.00 86 1011.7
20260831061044 17 0 0.0 12.9 0.00 0.03 0.00 87 1011.7
20260831060543 17 0 1.6 16.1 0.00 0.03 0.00 87 1011.7
20260831060107 16 0 0.0 16.1 0.00 0.03 0.00 88 1011.6
20260831055543 16 0 0.0 9.7 0.00 0.03 0.00 88 1011.6
20260831055046 16 0 0.0 14.5 0.00 0.03 0.00 88 1011.5
20260831054557 16 0 0.0 14.5 0.00 0.03 0.00 88 1011.7
20260831054046 16 235 0.0 14.5 0.00 0.03 0.00 89 1011.5
20260831053546 16 213 0.0 14.5 0.00 0.03 0.00 89 1011.5
20260831053108 16 0 3.2 16.1 0.00 0.03 0.00 89 1011.6
20260831052544 16 0 1.6 16.1 0.00 0.03 0.00 89 1011.6
20260831052041 16 240 0.0 16.1 0.00 0.03 0.00 89 1011.6
20260831051602 16 0 3.2 16.1 0.00 0.03 0.00 90 1011.7
20260831051046 16 0 1.6 12.9 0.00 0.03 0.00 90 1011.6
20260831050545 16 0 0.0 11.3 0.00 0.03 0.00 90 1011.6
20260831050116 16 0 1.6 9.7 0.00 0.03 0.00 90 1011.6
20260831045546 16 0 0.0 11.3 0.00 0.03 0.00 90 1011.5
20260831045043 16 206 0.0 11.3 0.00 0.03 0.00 90 1011.5
20260831044622 16 202 0.0 9.7 0.00 0.03 0.00 90 1011.4
20260831044043 16 0 0.0 9.7 0.00 0.03 0.00 89 1011.4
20260831043545 16 0 0.0 9.7 0.00 0.03 0.00 89 1011.4
20260831043103 16 0 0.0 9.7 0.00 0.03 0.00 89 1011.4
20260831042546 16 0 0.0 4.8 0.00 0.03 0.00 89 1011.3
20260831042046 16 0 0.0 4.8 0.00 0.03 0.00 90 1011.4
20260831041615 16 0 0.0 9.7 0.00 0.03 0.00 89 1011.3
20260831041046 16 0 0.0 9.7 0.00 0.03 0.00 89 1011.2
20260831040543 16 0 0.0 8.0 0.00 0.03 0.00 89 1011.2
20260831040107 16 0 0.0 8.0 0.00 0.03 0.00 89 1011.3
20260831035542 16 0 0.0 9.7 0.00 0.03 0.00 89 1011.2
20260831035045 16 0 0.0 9.7 0.00 0.03 0.00 89 1011.1
20260831034605 16 0 0.0 4.8 0.00 0.03 0.00 89 1011.1
20260831034042 16 0 0.0 4.8 0.00 0.03 0.00 89 1011.2
20260831033542 16 0 0.0 4.8 0.00 0.03 0.00 90 1011.3
20260831033104 16 0 0.0 0.0 0.00 0.03 0.00 90 1011.4
20260831032544 16 0 0.0 0.0 0.00 0.03 0.00 90 1011.3
20260831032043 16 0 0.0 0.0 0.00 0.03 0.00 89 1011.4
20260831031602 16 0 0.0 0.0 0.00 0.03 0.00 89 1011.4
20260831031047 16 0 0.0 9.7 0.00 0.03 0.00 88 1011.4
20260831030547 16 0 0.0 9.7 0.00 0.03 0.00 87 1011.3
20260831030107 16 215 0.0 4.8 0.00 0.03 0.00 85 1011.3
20260831025545 16 0 0.0 12.9 0.00 0.03 0.00 84 1011.4
20260831025135 17 0 0.0 14.5 0.00 0.00 0.00 81 1011.3
20260831024627 17 0 1.6 14.5 0.00 0.00 0.00 77 1011.3
20260831024042 18 199 1.6 14.5 0.00 0.00 0.00 75 1011.3
20260831023542 17 0 0.0 11.3 0.00 0.00 0.00 74 1011.1
20260831023106 17 0 0.0 9.7 0.00 0.00 0.00 75 1011.0
20260831022604 17 0 0.0 14.5 0.00 0.00 0.00 75 1010.9
20260831022043 17 0 0.0 14.5 0.00 0.00 0.00 75 1010.9
20260831021558 17 0 0.0 8.0 0.00 0.00 0.00 76 1010.8
20260831021046 17 175 0.0 8.0 0.00 0.00 0.00 76 1011.0
20260831020546 17 0 0.0 0.0 0.00 0.00 0.00 76 1010.9
20260831020117 17 0 0.0 0.0 0.00 0.00 0.00 76 1010.7
20260831015545 17 0 0.0 0.0 0.00 0.08 0.00 76 1010.7
20260831015135 17 0 0.0 0.0 0.00 0.08 0.00 76 1010.7
20260831014611 17 0 0.0 0.0 0.00 0.08 0.00 75 1010.8
20260831014045 17 0 0.0 3.2 0.00 0.08 0.00 74 1010.7
20260831013652 17 0 0.0 8.0 0.00 0.08 0.00 74 1010.7
20260831013059 17 0 0.0 8.0 0.00 0.08 0.00 75 1010.9
20260831012543 17 201 0.0 8.0 0.00 0.08 0.00 75 1011.2
20260831012045 17 0 0.0 6.4 0.00 0.08 0.00 75 1011.3
20260831011614 17 0 0.0 3.2 0.00 0.08 0.00 75 1011.3
20260831011042 17 0 0.0 3.2 0.00 0.08 0.00 75 1011.5
20260831010542 17 0 0.0 3.2 0.00 0.08 0.00 75 1011.5
20260831010107 17 0 0.0 0.0 0.00 0.08 0.00 75 1011.4
20260831005542 17 0 0.0 0.0 0.00 0.23 0.00 75 1011.5
20260831005043 17 0 0.0 0.0 0.00 0.23 0.00 75 1011.4
20260831004606 17 0 0.0 0.0 0.00 0.23 0.00 75 1011.3
20260831004044 17 0 0.0 0.0 0.00 0.23 0.00 75 1011.4
20260831003543 17 0 0.0 0.0 0.00 0.23 0.00 76 1011.4
20260831003108 17 0 0.0 0.0 0.00 0.23 0.00 76 1011.5
20260831002542 17 0 0.0 0.0 0.00 0.23 0.00 76 1011.7
20260831002043 17 0 0.0 0.0 0.00 0.23 0.00 77 1011.6
20260831001603 17 0 0.0 0.0 0.00 0.23 0.00 77 1011.8
20260831001045 17 0 0.0 0.0 0.00 0.23 0.00 77 1011.6
20260831000542 17 0 0.0 0.0 0.00 0.23 0.00 78 1011.5
20260831000101 17 0 0.0 0.0 0.00 0.23 0.00 79 1011.6
20260830235542 17 0 0.0 0.0 0.00 0.23 0.00 79 1011.7
20260830235044 17 0 0.0 0.0 0.00 0.23 0.00 79 1011.7
20260830234614 17 0 0.0 0.0 0.00 0.23 0.00 79 1011.8
20260830234041 17 0 0.0 0.0 0.00 0.23 0.00 79 1011.6
20260830233542 17 0 0.0 0.0 0.00 0.23 0.00 79 1011.8
20260830233106 17 0 0.0 0.0 0.00 0.23 0.00 79 1011.7
20260830232542 17 0 0.0 0.0 0.00 0.23 0.00 79 1011.8
20260830232042 17 0 0.0 0.0 0.00 0.23 0.00 79 1011.8
20260830231605 17 0 0.0 0.0 0.00 0.23 0.00 79 1011.8
20260830231041 17 0 0.0 0.0 0.00 0.23 0.00 78 1011.9
20260830230543 17 0 0.0 0.0 0.00 0.23 0.00 78 1011.9
20260830230104 17 0 0.0 0.0 0.00 0.23 0.00 78 1011.8
20260830225542 17 0 0.0 0.0 0.00 0.23 0.00 78 1011.9
20260830225046 17 0 0.0 0.0 0.00 0.23 0.00 77 1012.0
20260830224607 17 0 0.0 0.0 0.00 0.23 0.00 77 1012.2
20260830224046 17 0 0.0 0.0 0.00 0.23 0.00 77 1012.2
20260830223546 17 0 0.0 0.0 0.00 0.23 0.00 77 1012.2
20260830223108 17 0 0.0 0.0 0.00 0.23 0.00 78 1012.2
20260830222542 17 0 0.0 0.0 0.00 0.23 0.00 78 1012.2
20260830222138 17 0 0.0 0.0 0.00 0.23 0.00 78 1012.3
20260830221602 17 0 0.0 0.0 0.00 0.23 0.00 77 1012.3
20260830221046 17 0 0.0 0.0 0.00 0.23 0.00 77 1012.4
20260830220545 17 0 0.0 0.0 0.00 0.23 0.00 76 1012.3
20260830215545 17 0 0.0 0.0 0.00 0.23 0.23 76 1012.6
20260830215046 17 0 0.0 0.0 0.00 0.23 0.23 77 1012.5
20260830214607 17 0 0.0 0.0 0.00 0.23 0.23 77 1012.5
20260830214044 17 0 0.0 0.0 0.00 0.23 0.23 77 1012.6
20260830213542 17 0 0.0 0.0 0.00 0.23 0.23 77 1012.7
20260830213108 17 0 0.0 0.0 0.00 0.23 0.23 77 1012.7
20260830212542 17 0 0.0 0.0 0.00 0.23 0.23 78 1012.8
20260830212042 17 0 0.0 0.0 0.00 0.23 0.23 78 1012.7
20260830211606 17 0 0.0 0.0 0.00 0.23 0.23 77 1012.6
20260830211043 17 0 0.0 0.0 0.00 0.23 0.23 78 1012.7
20260830210546 17 0 0.0 0.0 0.00 0.23 0.23 78 1012.7
20260830210108 17 0 0.0 0.0 0.00 0.23 0.23 79 1012.7
20260830205545 17 0 0.0 0.0 0.00 0.23 0.23 79 1012.8
20260830205042 17 0 0.0 0.0 0.00 0.23 0.23 80 1013.0
20260830204606 17 0 0.0 0.0 0.00 0.23 0.23 83 1012.9
20260830204044 16 0 0.0 0.0 0.00 0.23 0.23 84 1013.0
20260830203545 16 0 0.0 0.0 0.00 0.23 0.23 84 1012.9
20260830203103 16 0 0.0 0.0 0.00 0.23 0.23 84 1012.9
20260830202542 16 0 0.0 0.0 0.00 0.23 0.23 84 1012.9
20260830202042 16 0 0.0 0.0 0.00 0.23 0.23 84 1012.9
20260830201613 16 0 0.0 0.0 0.00 0.23 0.23 84 1012.8
20260830201042 17 0 0.0 0.0 0.00 0.23 0.23 83 1012.9
20260830200544 17 0 0.0 0.0 0.00 0.23 0.23 83 1012.7
20260830200058 17 0 0.0 0.0 0.00 0.23 0.23 83 1012.9
20260830195546 17 0 0.0 0.0 0.00 0.23 0.23 82 1013.0
20260830195042 17 0 0.0 0.0 0.00 0.23 0.23 82 1013.0
20260830194606 17 0 0.0 0.0 0.00 0.23 0.23 82 1012.9
20260830194042 17 0 0.0 0.0 0.00 0.23 0.23 81 1013.0
20260830193542 17 0 0.0 0.0 0.00 0.23 0.23 81 1013.0